When you browse on this site, cookies collect data to enhance your experience and personalize the content and advertising you see.
Visit our Privacy Policy to learn more. By continuing to use the site, you agree to this use of cookies and data.
  • In Hungary
  • List of Countries
  • For 7 days
  • Water Temperature
  • Weather Map
  • News
  • Weather Widgets
  • user-avatar
    Login

    Hourly Weather Abu

    Today, 15 December, Sunday

    Time Temperature Precipitation Wind Pressure Humidity
    00:00 +13°C° 0 mm 2 mps 693 mmHg 45%
    01:00 +12°C° 0 mm 2 mps 693 mmHg 46%
    02:00 +12°C° 0 mm 2 mps 693 mmHg 48%
    03:00 +12°C° 0 mm 2 mps 693 mmHg 50%
    04:00 +10°C° 0 mm 2 mps 692 mmHg 52%
    05:00 +10°C° 0 mm 2 mps 692 mmHg 55%
    06:00 +10°C° 0 mm 2 mps 693 mmHg 54%
    07:00 +12°C° 0 mm 2 mps 694 mmHg 53%
    08:00 +12°C° 0 mm 2 mps 694 mmHg 53%
    09:00 +14°C° 0 mm 3 mps 695 mmHg 46%
    10:00 +17°C° 0 mm 3 mps 695 mmHg 39%
    11:00 +19°C° 0 mm 3 mps 695 mmHg 31%
    12:00 +20°C° 0 mm 3 mps 695 mmHg 28%
    13:00 +20°C° 0 mm 3 mps 694 mmHg 25%
    14:00 +21°C° 0 mm 3 mps 694 mmHg 22%
    15:00 +20°C° 0 mm 3 mps 693 mmHg 25%
    16:00 +19°C° 0 mm 3 mps 693 mmHg 28%
    17:00 +18°C° 0 mm 3 mps 693 mmHg 30%
    18:00 +17°C° 0 mm 3 mps 693 mmHg 32%
    19:00 +14°C° 0 mm 3 mps 693 mmHg 34%
    20:00 +13°C° 0 mm 3 mps 693 mmHg 36%
    21:00 +12°C° 0 mm 3 mps 693 mmHg 38%
    22:00 +12°C° 0 mm 3 mps 693 mmHg 40%
    23:00 +11°C° 0 mm 3 mps 693 mmHg 41%

    Tomorrow, 16 December, Monday

    Time Temperature Precipitation Wind Pressure Humidity
    00:00 +11°C° 0 mm 3 mps 693 mmHg 42%
    01:00 +10°C° 0 mm 3 mps 693 mmHg 44%
    02:00 +10°C° 0 mm 2 mps 693 mmHg 45%
    03:00 +9°C° 0 mm 2 mps 692 mmHg 46%
    04:00 +9°C° 0 mm 2 mps 692 mmHg 47%
    05:00 +9°C° 0 mm 2 mps 692 mmHg 48%
    06:00 +9°C° 0 mm 2 mps 693 mmHg 47%
    07:00 +10°C° 0 mm 2 mps 694 mmHg 47%
    08:00 +10°C° 0 mm 2 mps 694 mmHg 47%
    09:00 +13°C° 0 mm 3 mps 695 mmHg 41%
    10:00 +16°C° 0 mm 3 mps 695 mmHg 35%
    11:00 +18°C° 0 mm 3 mps 696 mmHg 30%
    12:00 +19°C° 0 mm 3 mps 695 mmHg 28%
    13:00 +20°C° 0 mm 3 mps 695 mmHg 26%
    14:00 +21°C° 0 mm 3 mps 694 mmHg 24%
    15:00 +20°C° 0 mm 3 mps 694 mmHg 27%
    16:00 +19°C° 0 mm 3 mps 693 mmHg 30%
    17:00 +18°C° 0 mm 3 mps 693 mmHg 33%
    18:00 +16°C° 0 mm 3 mps 693 mmHg 35%
    19:00 +14°C° 0 mm 3 mps 694 mmHg 37%
    20:00 +12°C° 0 mm 3 mps 694 mmHg 38%
    21:00 +12°C° 0 mm 3 mps 694 mmHg 39%
    22:00 +11°C° 0 mm 3 mps 694 mmHg 40%
    23:00 +11°C° 0 mm 3 mps 694 mmHg 41%

    Day after tomorrow, 17 December, Tuesday

    Time Temperature Precipitation Wind Pressure Humidity
    00:00 +10°C° 0 mm 3 mps 694 mmHg 42%
    01:00 +10°C° 0 mm 3 mps 693 mmHg 43%
    02:00 +9°C° 0 mm 3 mps 693 mmHg 44%
    03:00 +9°C° 0 mm 3 mps 693 mmHg 45%
    04:00 +9°C° 0 mm 3 mps 693 mmHg 46%
    05:00 +8°C° 0 mm 3 mps 693 mmHg 46%
    06:00 +9°C° 0 mm 3 mps 694 mmHg 45%
    07:00 +9°C° 0 mm 3 mps 695 mmHg 45%
    08:00 +10°C° 0 mm 3 mps 696 mmHg 44%
    09:00 +13°C° 0 mm 3 mps 696 mmHg 38%
    10:00 +16°C° 0 mm 3 mps 696 mmHg 32%
    11:00 +18°C° 0 mm 3 mps 697 mmHg 26%
    12:00 +19°C° 0 mm 3 mps 696 mmHg 24%
    13:00 +20°C° 0 mm 3 mps 696 mmHg 22%
    14:00 +21°C° 0 mm 3 mps 695 mmHg 20%
    15:00 +20°C° 0 mm 3 mps 695 mmHg 23%
    16:00 +18°C° 0 mm 3 mps 694 mmHg 26%
    17:00 +17°C° 0 mm 3 mps 694 mmHg 29%
    18:00 +16°C° 0 mm 3 mps 694 mmHg 30%
    19:00 +13°C° 0 mm 3 mps 694 mmHg 31%
    20:00 +12°C° 0 mm 3 mps 694 mmHg 32%
    21:00 +11°C° 0 mm 3 mps 694 mmHg 33%
    22:00 +11°C° 0 mm 3 mps 694 mmHg 34%
    23:00 +10°C° 0 mm 3 mps 694 mmHg 34%

    18 December, Wednesday

    Time Temperature Precipitation Wind Pressure Humidity
    00:00 +10°C° 0 mm 3 mps 693 mmHg 35%
    01:00 +10°C° 0 mm 2 mps 693 mmHg 36%
    02:00 +9°C° 0 mm 2 mps 693 mmHg 36%
    03:00 +9°C° 0 mm 2 mps 693 mmHg 37%
    04:00 +9°C° 0 mm 2 mps 693 mmHg 37%
    05:00 +8°C° 0 mm 2 mps 693 mmHg 37%
    06:00 +9°C° 0 mm 2 mps 693 mmHg 37%
    07:00 +10°C° 0 mm 2 mps 694 mmHg 37%
    08:00 +10°C° 0 mm 2 mps 694 mmHg 37%
    09:00 +14°C° 0 mm 2 mps 695 mmHg 32%
    10:00 +17°C° 0 mm 2 mps 695 mmHg 27%
    11:00 +20°C° 0 mm 1 mps 695 mmHg 22%
    12:00 +21°C° 0 mm 1 mps 695 mmHg 20%
    13:00 +22°C° 0 mm 1 mps 694 mmHg 18%
    14:00 +23°C° 0 mm 1 mps 694 mmHg 17%
    15:00 +22°C° 0 mm 1 mps 693 mmHg 20%
    16:00 +20°C° 0 mm 2 mps 693 mmHg 23%
    17:00 +18°C° 0 mm 2 mps 692 mmHg 26%
    18:00 +17°C° 0 mm 2 mps 693 mmHg 26%
    19:00 +15°C° 0 mm 2 mps 693 mmHg 27%
    20:00 +14°C° 0 mm 2 mps 693 mmHg 27%
    21:00 +14°C° 0 mm 2 mps 693 mmHg 27%
    22:00 +13°C° 0 mm 2 mps 692 mmHg 27%
    23:00 +13°C° 0 mm 2 mps 692 mmHg 28%

    19 December, Thursday

    Time Temperature Precipitation Wind Pressure Humidity
    00:00 +12°C° 0 mm 2 mps 692 mmHg 28%
    01:00 +12°C° 0 mm 2 mps 691 mmHg 29%
    02:00 +11°C° 0 mm 1 mps 691 mmHg 30%
    03:00 +11°C° 0 mm 1 mps 691 mmHg 31%
    04:00 +11°C° 0 mm 1 mps 691 mmHg 32%
    05:00 +11°C° 0 mm 1 mps 691 mmHg 32%
    06:00 +12°C° 0 mm 1 mps 692 mmHg 33%
    07:00 +13°C° 0 mm 1 mps 693 mmHg 34%
    08:00 +14°C° 0 mm 1 mps 693 mmHg 35%
    09:00 +18°C° 0 mm 1 mps 694 mmHg 30%
    10:00 +20°C° 0 mm 1 mps 694 mmHg 25%
    11:00 +21°C° 0 mm 0 mps 694 mmHg 20%
    12:00 +23°C° 0 mm 1 mps 694 mmHg 19%
    13:00 +24°C° 0 mm 1 mps 693 mmHg 18%
    14:00 +25°C° 0 mm 1 mps 693 mmHg 17%
    15:00 +23°C° 0 mm 1 mps 692 mmHg 20%
    16:00 +22°C° 0 mm 1 mps 692 mmHg 23%
    17:00 +21°C° 0 mm 1 mps 691 mmHg 26%
    18:00 +19°C° 0 mm 1 mps 691 mmHg 26%
    19:00 +18°C° 0 mm 1 mps 691 mmHg 26%
    20:00 +15°C° 0 mm 1 mps 691 mmHg 27%
    21:00 +15°C° 0 mm 1 mps 691 mmHg 27%
    22:00 +15°C° 0 mm 1 mps 691 mmHg 27%
    23:00 +14°C° 0 mm 1 mps 691 mmHg 27%

    20 December, Friday

    Time Temperature Precipitation Wind Pressure Humidity
    00:00 +14°C° 0 mm 1 mps 690 mmHg 28%
    01:00 +14°C° 0 mm 1 mps 690 mmHg 29%
    02:00 +13°C° 0 mm 1 mps 689 mmHg 29%
    03:00 +13°C° 0 mm 1 mps 689 mmHg 30%
    04:00 +13°C° 0 mm 1 mps 689 mmHg 31%
    05:00 +13°C° 0 mm 1 mps 689 mmHg 31%
    06:00 +14°C° 0 mm 1 mps 690 mmHg 32%
    07:00 +15°C° 0 mm 1 mps 690 mmHg 34%
    08:00 +16°C° 0 mm 1 mps 691 mmHg 35%
    09:00 +19°C° 0 mm 1 mps 691 mmHg 31%
    10:00 +21°C° 0 mm 1 mps 692 mmHg 27%
    11:00 +24°C° 0 mm 2 mps 692 mmHg 23%
    12:00 +24°C° 0 mm 2 mps 692 mmHg 23%
    13:00 +25°C° 0 mm 2 mps 691 mmHg 22%
    14:00 +26°C° 0 mm 2 mps 690 mmHg 21%
    15:00 +24°C° 0 mm 2 mps 690 mmHg 25%
    16:00 +23°C° 0 mm 2 mps 689 mmHg 28%
    17:00 +21°C° 0 mm 2 mps 689 mmHg 31%
    18:00 +20°C° 0 mm 1 mps 689 mmHg 33%
    19:00 +19°C° 0 mm 1 mps 689 mmHg 35%
    20:00 +16°C° 0 mm 1 mps 689 mmHg 37%
    21:00 +14°C° 0 mm 0 mps 689 mmHg 37%
    22:00 +14°C° 0 mm 0 mps 689 mmHg 38%
    23:00 +13°C° 0 mm 0 mps 689 mmHg 38%
    Show more